Zurück zum Katalog

STARLINK-5869

AktivKommunikationVLEO
NORAD 57061·PAYLOAD·🇺🇸 United States

Gestartet Jun 22, 2023 von Vandenberg Space Force Base

Loading…

Nächste Überflüge (nächste 24 Stunden)

TLE

AktuellSource: CelesTrak SupGP

Epoche: Sep 14, 2026, 20:43 UTC

1 57061C 23088P   26257.86368056 -.00057309  00000+0 -20760-2 0  2573
2 57061  42.9995 125.5591 0001292 254.3713 185.0649 15.27602093    15

Verfolge STARLINK-5869 in Echtzeit mit AllMySat

Download on the App Store